User: anonymous   Login
Location: Unspecified
(0.0000°N, 0.0000°E)
Time: 10:07:18
(UTC+01:00)
Language:

SJ-6B - Orbit

View from above orbital plane
View from above orbital plane
View from above satellite
View from above satellite

Ground track
Ground track

The orbit data is extracted from the following two-line orbital elements,

1 28415U 04035C   16036.85729390  .00001846  00000-0  12926-3 0  9993
2 28415  97.7863  56.3245 0053559   9.2101 351.0094 15.05407734623736
Epoch (UTC): 05 February 2016 20:34:30
Eccentricity: 0.0053559
inclination: 97.7863°
perigee height: 513 km
apogee height: 587 km
right ascension of ascending node: 56.3245°
argument of perigee: 9.2101°
revolutions per day: 15.05407734
mean anomaly at epoch: 351.0094°
orbit number at epoch: 62373

The dashed part of the orbit path shows where the satellite is in the earth's shadow,  

DLR